User: anonymous   Login
Location: Mentone
(34.5413°N, 85.5351°W)
Time: 05:19:19
(UTC-06:00)
Language:

Cosmos 2150 Rocket - Orbit

View from above orbital plane
View from above orbital plane
View from above satellite
View from above satellite

Ground track
Ground track

The orbit data is extracted from the following two-line orbital elements,

1 21419U 91041B   17057.80553008  .00000058  00000-0  29940-4 0  9992
2 21419  74.0406 141.4348 0039772  95.5819 264.9871 14.33847746344645
Epoch (UTC): 26 February 2017 19:19:57
Eccentricity: 0.0039772
inclination: 74.0406°
perigee height: 750 km
apogee height: 807 km
right ascension of ascending node: 141.4348°
argument of perigee: 95.5819°
revolutions per day: 14.33847746
mean anomaly at epoch: 264.9871°
orbit number at epoch: 34464

The dashed part of the orbit path shows where the satellite is in the earth's shadow,  

DLR